Location: Gleizolles
(44.4833°N, 6.7667°E)
Time: 16:30:59
(UTC+00:00)

Explorer 7 - Pass Details

Date: 16 June 2024
Orbit: 465 x 619 km, 50.3° (Epoch: 12 July)

Event Time Altitude Azimuth Distance (km) Brightness Sun altitude
Rises 17:37:54 0° 297° (WNW) 2,507 11.9 15.5°
Reaches altitude 10° 17:40:04 10° 299° (WNW) 1,622 11.5 15.1°
Maximum altitude 17:43:42 78° 26° (NNE) 480 6.8 14.5°
Drops below altitude 10° 17:47:21 10° 113° (ESE) 1,624 8.7 13.9°
Sets 17:49:31 0° 115° (ESE) 2,510 9.5 13.5°
